Time,TemperatureF,DewpointF,PressureIn,WindDirection,WindDirectionDegrees,WindSpeedMPH,WindSpeedGustMPH,Humidity,HourlyPrecipIn,Conditions,Clouds,dailyrainin,SoftwareType,DateUTC
2013-11-04 00:02:00,51.0,37.2,29.90,East,90,4.0,22.0,59,0.00,,,0.00,Weather View 32 v70,2013-11-04 06:02:00,
2013-11-04 00:07:00,51.0,37.6,29.90,ESE,112,6.0,17.0,60,0.00,,,0.00,Weather View 32 v70,2013-11-04 06:07:00,
2013-11-04 00:12:00,51.0,37.6,29.90,SSW,202,9.0,17.0,60,0.00,,,0.00,Weather View 32 v70,2013-11-04 06:12:00,
2013-11-04 00:17:00,51.0,37.2,29.91,East,90,5.0,17.0,59,0.00,,,0.00,Weather View 32 v70,2013-11-04 06:17:00,
2013-11-04 00:22:00,51.0,37.2,29.91,SSE,157,9.0,14.0,59,0.00,,,0.00,Weather View 32 v70,2013-11-04 06:22:00,
2013-11-04 00:27:00,51.0,37.6,29.90,ENE,67,7.0,14.0,60,0.00,,,0.00,Weather View 32 v70,2013-11-04 06:27:00,
2013-11-04 00:32:00,51.0,37.6,29.90,ESE,112,5.0,14.0,60,0.00,,,0.00,Weather View 32 v70,2013-11-04 06:32:00,
2013-11-04 00:37:00,51.0,37.6,29.90,SSE,157,1.0,14.0,60,0.00,,,0.00,Weather View 32 v70,2013-11-04 06:37:00,
2013-11-04 00:42:00,51.0,37.6,29.90,South,180,2.0,14.0,60,0.00,,,0.00,Weather View 32 v70,2013-11-04 06:42:00,
2013-11-04 00:47:00,51.0,37.6,29.91,South,180,7.0,14.0,60,0.00,,,0.00,Weather View 32 v70,2013-11-04 06:47:00,
2013-11-04 00:52:00,51.0,37.6,29.91,SSW,202,3.0,14.0,60,0.00,,,0.00,Weather View 32 v70,2013-11-04 06:52:00,
2013-11-04 00:57:00,51.0,38.0,29.91,SE,135,6.0,14.0,61,0.00,,,0.00,Weather View 32 v70,2013-11-04 06:57:00,
2013-11-04 01:02:00,51.0,38.0,29.91,ESE,112,6.0,14.0,61,0.00,,,0.00,Weather View 32 v70,2013-11-04 07:02:00,
2013-11-04 01:07:00,51.0,38.4,29.90,SE,135,7.0,14.0,62,0.00,,,0.00,Weather View 32 v70,2013-11-04 07:07:00,
2013-11-04 01:12:00,51.0,38.4,29.90,SE,135,5.0,14.0,62,0.00,,,0.00,Weather View 32 v70,2013-11-04 07:12:00,
2013-11-04 01:17:00,51.0,38.4,29.90,SE,135,5.0,13.0,62,0.00,,,0.00,Weather View 32 v70,2013-11-04 07:17:00,
2013-11-04 01:22:00,51.0,38.4,29.90,WSW,247,1.0,13.0,62,0.00,,,0.00,Weather View 32 v70,2013-11-04 07:22:00,
2013-11-04 01:27:00,51.0,38.4,29.90,South,180,4.0,13.0,62,0.00,,,0.00,Weather View 32 v70,2013-11-04 07:27:00,
2013-11-04 01:32:00,51.0,38.4,29.90,East,90,1.0,13.0,62,0.00,,,0.00,Weather View 32 v70,2013-11-04 07:32:00,
2013-11-04 01:37:00,51.0,38.8,29.92,SE,135,9.0,13.0,63,0.00,,,0.00,Weather View 32 v70,2013-11-04 07:37:00,
2013-11-04 01:42:00,51.0,38.8,29.92,SSE,157,3.0,13.0,63,0.00,,,0.00,Weather View 32 v70,2013-11-04 07:42:00,
2013-11-04 01:47:00,51.0,38.8,29.92,ESE,112,6.0,13.0,63,0.00,,,0.00,Weather View 32 v70,2013-11-04 07:47:00,
2013-11-04 01:52:00,51.0,38.8,29.92,South,180,9.0,13.0,63,0.00,,,0.00,Weather View 32 v70,2013-11-04 07:52:00,
2013-11-04 01:57:00,50.0,37.9,29.92,WSW,247,0.0,13.0,63,0.00,,,0.00,Weather View 32 v70,2013-11-04 07:57:00,
2013-11-04 02:02:00,50.0,38.3,29.92,ENE,67,4.0,13.0,64,0.00,,,0.00,Weather View 32 v70,2013-11-04 08:02:00,
2013-11-04 02:07:00,50.0,38.3,29.91,South,180,3.0,13.0,64,0.00,,,0.00,Weather View 32 v70,2013-11-04 08:07:00,
2013-11-04 02:12:00,50.0,38.7,29.91,SSE,157,4.0,13.0,65,0.00,,,0.00,Weather View 32 v70,2013-11-04 08:12:00,
2013-11-04 02:17:00,50.0,38.7,29.92,SSE,157,5.0,13.0,65,0.00,,,0.00,Weather View 32 v70,2013-11-04 08:17:00,
2013-11-04 02:22:00,50.0,39.1,29.92,SE,135,5.0,12.0,66,0.00,,,0.00,Weather View 32 v70,2013-11-04 08:22:00,
2013-11-04 02:27:00,50.0,39.1,29.92,East,90,4.0,12.0,66,0.00,,,0.00,Weather View 32 v70,2013-11-04 08:27:00,
2013-11-04 02:32:00,50.0,39.5,29.92,ESE,112,3.0,12.0,67,0.00,,,0.00,Weather View 32 v70,2013-11-04 08:32:00,
2013-11-04 02:37:00,50.0,39.5,29.92,SSE,157,6.0,12.0,67,0.00,,,0.00,Weather View 32 v70,2013-11-04 08:37:00,
2013-11-04 02:42:00,50.0,39.5,29.92,WNW,292,1.0,12.0,67,0.00,,,0.00,Weather View 32 v70,2013-11-04 08:42:00,
2013-11-04 02:47:00,50.0,39.5,29.91,SSE,157,2.0,12.0,67,0.00,,,0.00,Weather View 32 v70,2013-11-04 08:47:00,
2013-11-04 02:52:00,49.0,38.9,29.91,ESE,112,3.0,12.0,68,0.00,,,0.00,Weather View 32 v70,2013-11-04 08:52:00,
2013-11-04 02:57:00,49.0,38.9,29.91,SSE,157,6.0,12.0,68,0.00,,,0.00,Weather View 32 v70,2013-11-04 08:57:00,
2013-11-04 03:02:00,49.0,38.9,29.91,ESE,112,0.0,12.0,68,0.00,,,0.00,Weather View 32 v70,2013-11-04 09:02:00,
2013-11-04 03:07:00,49.0,39.3,29.91,SSE,157,0.0,12.0,69,0.00,,,0.00,Weather View 32 v70,2013-11-04 09:07:00,
2013-11-04 03:12:00,49.0,39.3,29.91,SE,135,0.0,11.0,69,0.00,,,0.00,Weather View 32 v70,2013-11-04 09:12:00,
2013-11-04 03:17:00,49.0,39.6,29.91,SSE,157,5.0,11.0,70,0.00,,,0.00,Weather View 32 v70,2013-11-04 09:17:00,
2013-11-04 03:22:00,49.0,39.6,29.91,SSE,157,4.0,11.0,70,0.00,,,0.00,Weather View 32 v70,2013-11-04 09:22:00,
2013-11-04 03:27:00,49.0,39.6,29.90,SSE,157,1.0,11.0,70,0.00,,,0.00,Weather View 32 v70,2013-11-04 09:27:00,
2013-11-04 03:32:00,49.0,39.6,29.90,South,180,9.0,11.0,70,0.00,,,0.00,Weather View 32 v70,2013-11-04 09:32:00,
2013-11-04 03:37:00,49.0,40.0,29.90,SE,135,3.0,11.0,71,0.00,,,0.00,Weather View 32 v70,2013-11-04 09:37:00,
2013-11-04 03:42:00,49.0,40.0,29.90,NW,315,2.0,11.0,71,0.00,,,0.00,Weather View 32 v70,2013-11-04 09:42:00,
2013-11-04 03:47:00,49.0,40.4,29.91,SW,225,4.0,11.0,72,0.00,,,0.00,Weather View 32 v70,2013-11-04 09:47:00,
2013-11-04 03:52:00,49.0,40.4,29.91,ESE,112,3.0,11.0,72,0.00,,,0.00,Weather View 32 v70,2013-11-04 09:52:00,
2013-11-04 03:57:00,49.0,40.4,29.91,South,180,2.0,11.0,72,0.00,,,0.00,Weather View 32 v70,2013-11-04 09:57:00,
2013-11-04 04:02:00,48.0,39.7,29.91,SSE,157,4.0,11.0,73,0.00,,,0.00,Weather View 32 v70,2013-11-04 10:02:00,
2013-11-04 04:07:00,49.0,40.7,29.91,SE,135,4.0,11.0,73,0.00,,,0.00,Weather View 32 v70,2013-11-04 10:07:00,
2013-11-04 04:12:00,48.0,39.7,29.91,ESE,112,4.0,11.0,73,0.00,,,0.00,Weather View 32 v70,2013-11-04 10:12:00,
2013-11-04 04:17:00,48.0,40.1,29.91,SSE,157,5.0,11.0,74,0.00,,,0.00,Weather View 32 v70,2013-11-04 10:17:00,
2013-11-04 04:22:00,48.0,40.1,29.91,SSE,157,1.0,11.0,74,0.00,,,0.00,Weather View 32 v70,2013-11-04 10:22:00,
2013-11-04 04:27:00,48.0,40.1,29.91,ESE,112,8.0,10.0,74,0.00,,,0.00,Weather View 32 v70,2013-11-04 10:27:00,
2013-11-04 04:32:00,48.0,40.1,29.91,SSE,157,1.0,10.0,74,0.00,,,0.00,Weather View 32 v70,2013-11-04 10:32:00,
2013-11-04 04:37:00,48.0,40.1,29.91,ESE,112,0.0,10.0,74,0.00,,,0.00,Weather View 32 v70,2013-11-04 10:37:00,
2013-11-04 04:42:00,48.0,40.1,29.91,ESE,112,3.0,10.0,74,0.00,,,0.00,Weather View 32 v70,2013-11-04 10:42:00,
2013-11-04 04:47:00,48.0,40.1,29.91,SSE,157,1.0,13.0,74,0.00,,,0.00,Weather View 32 v70,2013-11-04 10:47:00,
2013-11-04 04:52:00,48.0,40.1,29.91,ENE,67,5.0,13.0,74,0.00,,,0.00,Weather View 32 v70,2013-11-04 10:52:00,
2013-11-04 04:57:00,48.0,40.4,29.91,East,90,5.0,13.0,75,0.00,,,0.00,Weather View 32 v70,2013-11-04 10:57:00,
2013-11-04 05:02:00,49.0,41.1,29.91,ESE,112,3.0,13.0,74,0.00,,,0.00,Weather View 32 v70,2013-11-04 11:02:00,
2013-11-04 05:07:00,49.0,41.1,29.91,NE,45,3.0,13.0,74,0.00,,,0.00,Weather View 32 v70,2013-11-04 11:07:00,
2013-11-04 05:12:00,49.0,40.7,29.91,East,90,1.0,13.0,73,0.00,,,0.00,Weather View 32 v70,2013-11-04 11:12:00,
2013-11-04 05:14:00,49.0,40.7,29.91,ENE,67,1.0,13.0,73,0.00,,,0.00,Weather View 32 v70,2013-11-04 11:14:00,
2013-11-04 05:19:00,49.0,40.7,29.91,SSE,157,5.0,13.0,73,0.00,,,0.00,Weather View 32 v70,2013-11-04 11:19:00,
2013-11-04 05:22:00,49.0,40.7,29.91,ESE,112,4.0,13.0,73,0.00,,,0.00,Weather View 32 v70,2013-11-04 11:22:00,
2013-11-04 05:27:00,49.0,40.7,29.91,SSE,157,0.0,13.0,73,0.00,,,0.00,Weather View 32 v70,2013-11-04 11:27:00,
2013-11-04 05:32:00,49.0,41.1,29.91,SSE,157,3.0,13.0,74,0.00,,,0.00,Weather View 32 v70,2013-11-04 11:32:00,
2013-11-04 05:37:00,49.0,41.1,29.92,South,180,10.0,13.0,74,0.00,,,0.00,Weather View 32 v70,2013-11-04 11:37:00,
2013-11-04 05:42:00,49.0,41.1,29.92,East,90,4.0,14.0,74,0.00,,,0.00,Weather View 32 v70,2013-11-04 11:42:00,
2013-11-04 05:47:00,49.0,40.7,29.91,SSW,202,7.0,14.0,73,0.00,,,0.00,Weather View 32 v70,2013-11-04 11:47:00,
2013-11-04 05:52:00,49.0,41.1,29.91,WSW,247,1.0,14.0,74,0.00,,,0.00,Weather View 32 v70,2013-11-04 11:52:00,
2013-11-04 05:57:00,49.0,41.4,29.91,SE,135,2.0,14.0,75,0.00,,,0.00,Weather View 32 v70,2013-11-04 11:57:00,
2013-11-04 06:02:00,49.0,41.4,29.91,SE,135,7.0,14.0,75,0.00,,,0.00,Weather View 32 v70,2013-11-04 12:02:00,
2013-11-04 06:07:00,49.0,41.4,29.91,SW,225,3.0,14.0,75,0.00,,,0.00,Weather View 32 v70,2013-11-04 12:07:00,
2013-11-04 06:12:00,49.0,41.4,29.91,WSW,247,0.0,14.0,75,0.00,,,0.00,Weather View 32 v70,2013-11-04 12:12:00,
2013-11-04 06:17:00,49.0,41.4,29.92,ESE,112,2.0,14.0,75,0.00,,,0.00,Weather View 32 v70,2013-11-04 12:17:00,
2013-11-04 06:23:00,49.0,41.4,29.92,South,180,4.0,14.0,75,0.00,,,0.00,Weather View 32 v70,2013-11-04 12:23:00,
2013-11-04 06:28:00,49.0,41.4,29.93,ESE,112,0.0,14.0,75,0.00,,,0.00,Weather View 32 v70,2013-11-04 12:28:00,
2013-11-04 06:33:00,49.0,41.4,29.93,SW,225,5.0,14.0,75,0.00,,,0.00,Weather View 32 v70,2013-11-04 12:33:00,
2013-11-04 06:38:00,49.0,41.8,29.93,WSW,247,4.0,14.0,76,0.00,,,0.00,Weather View 32 v70,2013-11-04 12:38:00,
2013-11-04 06:43:00,49.0,41.8,29.93,SSE,157,0.0,12.0,76,0.00,,,0.00,Weather View 32 v70,2013-11-04 12:43:00,
2013-11-04 06:48:00,49.0,41.8,29.93,South,180,4.0,13.0,76,0.00,,,0.00,Weather View 32 v70,2013-11-04 12:48:00,
2013-11-04 06:53:00,50.0,42.4,29.94,ESE,112,1.0,13.0,75,0.00,,,0.00,Weather View 32 v70,2013-11-04 12:53:00,
2013-11-04 06:58:00,50.0,42.4,29.94,SSE,157,1.0,13.0,75,0.00,,,0.00,Weather View 32 v70,2013-11-04 12:58:00,
2013-11-04 07:03:00,50.0,42.4,29.93,WSW,247,0.0,13.0,75,0.00,,,0.00,Weather View 32 v70,2013-11-04 13:03:00,
2013-11-04 07:08:00,50.0,42.7,29.93,ESE,112,4.0,13.0,76,0.00,,,0.00,Weather View 32 v70,2013-11-04 13:08:00,
2013-11-04 07:13:00,50.0,42.4,29.94,ENE,67,2.0,13.0,75,0.00,,,0.00,Weather View 32 v70,2013-11-04 13:13:00,
2013-11-04 07:18:00,49.0,42.1,29.94,South,180,3.0,13.0,77,0.00,,,0.00,Weather View 32 v70,2013-11-04 13:18:00,
2013-11-04 07:23:00,50.0,42.7,29.93,SSE,157,3.0,13.0,76,0.00,,,0.00,Weather View 32 v70,2013-11-04 13:23:00,
2013-11-04 07:28:00,49.0,42.1,29.93,ESE,112,3.0,13.0,77,0.00,,,0.00,Weather View 32 v70,2013-11-04 13:28:00,
2013-11-04 07:33:00,49.0,42.1,29.93,ESE,112,7.0,14.0,77,0.00,,,0.00,Weather View 32 v70,2013-11-04 13:33:00,
2013-11-04 07:38:00,49.0,42.4,29.93,SW,225,4.0,14.0,78,0.00,,,0.00,Weather View 32 v70,2013-11-04 13:38:00,
2013-11-04 07:43:00,49.0,42.4,29.94,South,180,7.0,14.0,78,0.00,,,0.00,Weather View 32 v70,2013-11-04 13:43:00,
2013-11-04 07:48:00,50.0,43.1,29.94,South,180,2.0,14.0,77,0.00,,,0.00,Weather View 32 v70,2013-11-04 13:48:00,
2013-11-04 07:53:00,50.0,43.1,29.95,SW,225,4.0,14.0,77,0.00,,,0.00,Weather View 32 v70,2013-11-04 13:53:00,
2013-11-04 07:58:00,50.0,43.1,29.95,WNW,292,6.0,14.0,77,0.00,,,0.00,Weather View 32 v70,2013-11-04 13:58:00,
2013-11-04 08:03:00,50.0,43.1,29.95,South,180,4.0,14.0,77,0.00,,,0.00,Weather View 32 v70,2013-11-04 14:03:00,
2013-11-04 08:08:00,50.0,43.1,29.95,ESE,112,4.0,14.0,77,0.00,,,0.00,Weather View 32 v70,2013-11-04 14:08:00,
2013-11-04 08:13:00,50.0,43.1,29.95,South,180,4.0,14.0,77,0.00,,,0.00,Weather View 32 v70,2013-11-04 14:13:00,
2013-11-04 08:18:00,50.0,43.1,29.95,SSE,157,3.0,14.0,77,0.00,,,0.00,Weather View 32 v70,2013-11-04 14:18:00,
2013-11-04 08:23:00,50.0,43.1,29.96,South,180,1.0,18.0,77,0.00,,,0.00,Weather View 32 v70,2013-11-04 14:23:00,
2013-11-04 08:28:00,50.0,43.1,29.96,SE,135,8.0,18.0,77,0.00,,,0.00,Weather View 32 v70,2013-11-04 14:28:00,
2013-11-04 08:33:00,50.0,43.1,29.97,SSE,157,14.0,18.0,77,0.00,,,0.00,Weather View 32 v70,2013-11-04 14:33:00,
2013-11-04 08:38:00,50.0,43.1,29.97,SSW,202,6.0,18.0,77,0.00,,,0.00,Weather View 32 v70,2013-11-04 14:38:00,
2013-11-04 08:43:00,50.0,43.1,29.98,SSE,157,0.0,18.0,77,0.00,,,0.00,Weather View 32 v70,2013-11-04 14:43:00,
2013-11-04 08:48:00,50.0,43.4,29.98,South,180,4.0,18.0,78,0.00,,,0.00,Weather View 32 v70,2013-11-04 14:48:00,
2013-11-04 08:53:00,50.0,43.1,29.98,SSW,202,5.0,18.0,77,0.00,,,0.00,Weather View 32 v70,2013-11-04 14:53:00,
2013-11-04 08:58:00,50.0,43.4,29.98,SSE,157,3.0,18.0,78,0.00,,,0.00,Weather View 32 v70,2013-11-04 14:58:00,
2013-11-04 09:03:00,50.0,43.1,29.99,SSE,157,3.0,18.0,77,0.00,,,0.00,Weather View 32 v70,2013-11-04 15:03:00,
2013-11-04 09:08:00,50.0,43.4,29.99,SW,225,6.0,18.0,78,0.00,,,0.00,Weather View 32 v70,2013-11-04 15:08:00,
2013-11-04 09:13:00,50.0,43.4,30.00,WSW,247,5.0,18.0,78,0.00,,,0.00,Weather View 32 v70,2013-11-04 15:13:00,
2013-11-04 09:19:00,50.0,43.4,30.00,WSW,247,9.0,18.0,78,0.00,,,0.00,Weather View 32 v70,2013-11-04 15:19:00,
2013-11-04 09:24:00,50.0,43.4,30.01,WSW,247,4.0,15.0,78,0.00,,,0.00,Weather View 32 v70,2013-11-04 15:24:00,
2013-11-04 09:29:00,50.0,43.4,30.01,WSW,247,9.0,14.0,78,0.00,,,0.00,Weather View 32 v70,2013-11-04 15:29:00,
2013-11-04 09:34:00,50.0,43.4,30.02,WSW,247,3.0,14.0,78,0.00,,,0.00,Weather View 32 v70,2013-11-04 15:34:00,
2013-11-04 09:39:00,49.0,42.4,30.02,WSW,247,4.0,14.0,78,0.00,,,0.00,Weather View 32 v70,2013-11-04 15:39:00,
2013-11-04 09:44:00,49.0,42.4,30.02,WSW,247,7.0,14.0,78,0.00,,,0.00,Weather View 32 v70,2013-11-04 15:44:00,
2013-11-04 09:49:00,49.0,42.4,30.02,WSW,247,6.0,14.0,78,0.00,,,0.00,Weather View 32 v70,2013-11-04 15:49:00,
2013-11-04 09:54:00,50.0,43.4,30.02,WSW,247,7.0,14.0,78,0.00,,,0.00,Weather View 32 v70,2013-11-04 15:54:00,
2013-11-04 09:59:00,50.0,43.4,30.02,WSW,247,5.0,14.0,78,0.00,,,0.00,Weather View 32 v70,2013-11-04 15:59:00,
2013-11-04 10:04:00,50.0,43.1,30.02,WSW,247,7.0,14.0,77,0.00,,,0.00,Weather View 32 v70,2013-11-04 16:04:00,
2013-11-04 10:09:00,50.0,42.7,30.02,WSW,247,7.0,14.0,76,0.00,,,0.00,Weather View 32 v70,2013-11-04 16:09:00,
2013-11-04 10:14:00,50.0,42.0,30.02,WNW,292,7.0,14.0,74,0.00,,,0.00,Weather View 32 v70,2013-11-04 16:14:00,
2013-11-04 10:19:00,49.0,40.7,30.02,WNW,292,10.0,22.0,73,0.00,,,0.00,Weather View 32 v70,2013-11-04 16:19:00,
2013-11-04 10:24:00,49.0,41.1,30.03,WNW,292,14.0,22.0,74,0.00,,,0.00,Weather View 32 v70,2013-11-04 16:24:00,
2013-11-04 10:29:00,49.0,40.0,30.03,NNW,337,16.0,22.0,71,0.00,,,0.00,Weather View 32 v70,2013-11-04 16:29:00,
2013-11-04 10:34:00,48.0,39.4,30.03,WNW,292,13.0,22.0,72,0.00,,,0.00,Weather View 32 v70,2013-11-04 16:34:00,
2013-11-04 10:39:00,49.0,38.9,30.03,NNW,337,11.0,22.0,68,0.00,,,0.00,Weather View 32 v70,2013-11-04 16:39:00,
2013-11-04 10:44:00,50.0,39.5,30.04,NW,315,12.0,22.0,67,0.00,,,0.00,Weather View 32 v70,2013-11-04 16:44:00,
2013-11-04 10:49:00,50.0,37.9,30.04,NNW,337,13.0,22.0,63,0.00,,,0.00,Weather View 32 v70,2013-11-04 16:49:00,
2013-11-04 10:54:00,50.0,37.9,30.04,NNW,337,15.0,22.0,63,0.00,,,0.00,Weather View 32 v70,2013-11-04 16:54:00,
2013-11-04 10:59:00,51.0,38.0,30.04,NNW,337,11.0,22.0,61,0.00,,,0.00,Weather View 32 v70,2013-11-04 16:59:00,
2013-11-04 11:04:00,51.0,38.4,30.04,NW,315,21.0,24.0,62,0.00,,,0.00,Weather View 32 v70,2013-11-04 17:04:00,
2013-11-04 11:09:00,51.0,37.2,30.04,NNW,337,16.0,24.0,59,0.00,,,0.00,Weather View 32 v70,2013-11-04 17:09:00,
2013-11-04 11:14:00,52.0,38.1,30.05,North,360,14.0,24.0,59,0.00,,,0.00,Weather View 32 v70,2013-11-04 17:14:00,
2013-11-04 11:19:00,52.0,38.1,30.05,NNW,337,13.0,24.0,59,0.00,,,0.00,Weather View 32 v70,2013-11-04 17:19:00,
2013-11-04 11:24:00,52.0,38.1,30.04,NNE,22,15.0,24.0,59,0.00,,,0.00,Weather View 32 v70,2013-11-04 17:24:00,
2013-11-04 11:29:00,53.0,38.6,30.04,North,360,13.0,24.0,58,0.00,,,0.00,Weather View 32 v70,2013-11-04 17:29:00,
2013-11-04 11:34:00,53.0,37.7,30.04,NNW,337,10.0,24.0,56,0.00,,,0.00,Weather View 32 v70,2013-11-04 17:34:00,
2013-11-04 11:39:00,53.0,38.6,30.04,NNW,337,18.0,24.0,58,0.00,,,0.00,Weather View 32 v70,2013-11-04 17:39:00,
2013-11-04 11:44:00,53.0,36.8,30.05,North,360,15.0,24.0,54,0.00,,,0.00,Weather View 32 v70,2013-11-04 17:44:00,
2013-11-04 11:49:00,53.0,37.2,30.05,North,360,10.0,24.0,55,0.00,,,0.00,Weather View 32 v70,2013-11-04 17:49:00,
2013-11-04 11:55:00,54.0,37.2,30.06,WNW,292,15.0,24.0,53,0.00,,,0.00,Weather View 32 v70,2013-11-04 17:55:00,
2013-11-04 12:00:00,54.0,37.2,30.06,NNW,337,8.0,24.0,53,0.00,,,0.00,Weather View 32 v70,2013-11-04 18:00:00,
2013-11-04 12:05:00,54.0,36.7,30.06,WNW,292,18.0,24.0,52,0.00,,,0.00,Weather View 32 v70,2013-11-04 18:05:00,
2013-11-04 12:10:00,54.0,36.7,30.06,NNW,337,16.0,23.0,52,0.00,,,0.00,Weather View 32 v70,2013-11-04 18:10:00,
2013-11-04 12:15:00,54.0,37.7,30.05,NW,315,18.0,23.0,54,0.00,,,0.00,Weather View 32 v70,2013-11-04 18:15:00,
2013-11-04 12:20:00,54.0,36.2,30.05,NNW,337,9.0,22.0,51,0.00,,,0.00,Weather View 32 v70,2013-11-04 18:20:00,
2013-11-04 12:25:00,55.0,38.6,30.05,NW,315,12.0,22.0,54,0.00,,,0.00,Weather View 32 v70,2013-11-04 18:25:00,
2013-11-04 12:30:00,55.0,38.6,30.05,NNW,337,12.0,27.0,54,0.00,,,0.00,Weather View 32 v70,2013-11-04 18:30:00,
2013-11-04 12:35:00,53.0,36.8,30.05,NW,315,14.0,27.0,54,0.00,,,0.00,Weather View 32 v70,2013-11-04 18:35:00,
2013-11-04 12:40:00,53.0,37.7,30.05,NNW,337,10.0,27.0,56,0.00,,,0.00,Weather View 32 v70,2013-11-04 18:40:00,
2013-11-04 12:45:00,54.0,37.2,30.06,NNW,337,16.0,27.0,53,0.00,,,0.00,Weather View 32 v70,2013-11-04 18:45:00,
2013-11-04 12:50:00,53.0,37.2,30.06,WNW,292,17.0,27.0,55,0.00,,,0.00,Weather View 32 v70,2013-11-04 18:50:00,
2013-11-04 12:55:00,53.0,37.2,30.06,NNE,22,10.0,27.0,55,0.00,,,0.00,Weather View 32 v70,2013-11-04 18:55:00,
2013-11-04 13:00:00,53.0,36.8,30.06,NNE,22,19.0,27.0,54,0.00,,,0.00,Weather View 32 v70,2013-11-04 19:00:00,
2013-11-04 13:05:00,53.0,36.8,30.07,NNW,337,12.0,27.0,54,0.00,,,0.00,Weather View 32 v70,2013-11-04 19:05:00,
2013-11-04 13:10:00,53.0,36.8,30.07,NW,315,9.0,27.0,54,0.00,,,0.00,Weather View 32 v70,2013-11-04 19:10:00,
2013-11-04 13:15:00,54.0,37.2,30.07,North,360,16.0,27.0,53,0.00,,,0.00,Weather View 32 v70,2013-11-04 19:15:00,
2013-11-04 13:20:00,54.0,37.7,30.07,North,360,15.0,27.0,54,0.00,,,0.00,Weather View 32 v70,2013-11-04 19:20:00,
2013-11-04 13:25:00,55.0,38.1,30.06,NNW,337,10.0,27.0,53,0.00,,,0.00,Weather View 32 v70,2013-11-04 19:25:00,
2013-11-04 13:30:00,55.0,38.1,30.06,NNE,22,13.0,27.0,53,0.00,,,0.00,Weather View 32 v70,2013-11-04 19:30:00,
2013-11-04 13:35:00,55.0,37.2,30.05,North,360,19.0,25.0,51,0.00,,,0.00,Weather View 32 v70,2013-11-04 19:35:00,
2013-11-04 13:40:00,55.0,37.7,30.05,NNW,337,13.0,25.0,52,0.00,,,0.00,Weather View 32 v70,2013-11-04 19:40:00,
2013-11-04 13:45:00,55.0,37.2,30.05,NNW,337,12.0,25.0,51,0.00,,,0.00,Weather View 32 v70,2013-11-04 19:45:00,
2013-11-04 13:50:00,55.0,38.1,30.05,NNE,22,15.0,25.0,53,0.00,,,0.00,Weather View 32 v70,2013-11-04 19:50:00,
2013-11-04 13:55:00,55.0,37.2,30.06,North,360,9.0,25.0,51,0.00,,,0.00,Weather View 32 v70,2013-11-04 19:55:00,
2013-11-04 14:00:00,55.0,37.7,30.06,NNW,337,7.0,25.0,52,0.00,,,0.00,Weather View 32 v70,2013-11-04 20:00:00,
2013-11-04 14:05:00,56.0,37.1,30.06,North,360,14.0,24.0,49,0.00,,,0.00,Weather View 32 v70,2013-11-04 20:05:00,
2013-11-04 14:10:00,55.0,37.7,30.06,NNW,337,10.0,24.0,52,0.00,,,0.00,Weather View 32 v70,2013-11-04 20:10:00,
2013-11-04 14:15:00,55.0,37.2,30.06,NNE,22,8.0,24.0,51,0.00,,,0.00,Weather View 32 v70,2013-11-04 20:15:00,
2013-11-04 14:20:00,56.0,38.1,30.06,NNW,337,12.0,24.0,51,0.00,,,0.00,Weather View 32 v70,2013-11-04 20:20:00,
2013-11-04 14:25:00,55.0,37.2,30.07,NNW,337,7.0,23.0,51,0.00,,,0.00,Weather View 32 v70,2013-11-04 20:25:00,
2013-11-04 14:30:00,56.0,38.1,30.07,NNW,337,6.0,23.0,51,0.00,,,0.00,Weather View 32 v70,2013-11-04 20:30:00,
2013-11-04 14:35:00,55.0,36.7,30.07,NNE,22,7.0,23.0,50,0.00,,,0.00,Weather View 32 v70,2013-11-04 20:35:00,
2013-11-04 14:40:00,54.0,36.7,30.07,NNW,337,6.0,23.0,52,0.00,,,0.00,Weather View 32 v70,2013-11-04 20:40:00,
2013-11-04 14:45:00,56.0,37.6,30.08,NNE,22,6.0,20.0,50,0.00,,,0.00,Weather View 32 v70,2013-11-04 20:45:00,
2013-11-04 14:50:00,56.0,36.5,30.08,WNW,292,15.0,19.0,48,0.00,,,0.00,Weather View 32 v70,2013-11-04 20:50:00,
2013-11-04 14:55:00,56.0,37.1,30.07,NNE,22,8.0,19.0,49,0.00,,,0.00,Weather View 32 v70,2013-11-04 20:55:00,
2013-11-04 15:00:00,56.0,36.5,30.07,NNE,22,8.0,19.0,48,0.00,,,0.00,Weather View 32 v70,2013-11-04 21:00:00,
2013-11-04 15:05:00,56.0,36.0,30.07,NNW,337,10.0,19.0,47,0.00,,,0.00,Weather View 32 v70,2013-11-04 21:05:00,
2013-11-04 15:10:00,57.0,36.4,30.07,NNW,337,17.0,19.0,46,0.00,,,0.00,Weather View 32 v70,2013-11-04 21:10:00,
2013-11-04 15:15:00,56.0,37.1,30.08,North,360,10.0,19.0,49,0.00,,,0.00,Weather View 32 v70,2013-11-04 21:15:00,
2013-11-04 15:20:00,56.0,35.5,30.08,NNE,22,7.0,19.0,46,0.00,,,0.00,Weather View 32 v70,2013-11-04 21:20:00,
2013-11-04 15:25:00,56.0,34.9,30.08,NNE,22,11.0,19.0,45,0.00,,,0.00,Weather View 32 v70,2013-11-04 21:25:00,
2013-11-04 15:30:00,56.0,34.9,30.08,NW,315,10.0,19.0,45,0.00,,,0.00,Weather View 32 v70,2013-11-04 21:30:00,
2013-11-04 15:35:00,56.0,35.5,30.08,NNW,337,10.0,19.0,46,0.00,,,0.00,Weather View 32 v70,2013-11-04 21:35:00,
2013-11-04 15:40:00,56.0,34.9,30.08,NNW,337,12.0,19.0,45,0.00,,,0.00,Weather View 32 v70,2013-11-04 21:40:00,
2013-11-04 15:45:00,56.0,34.9,30.09,NE,45,6.0,19.0,45,0.00,,,0.00,Weather View 32 v70,2013-11-04 21:45:00,
2013-11-04 15:50:00,56.0,34.3,30.09,NNW,337,8.0,19.0,44,0.00,,,0.00,Weather View 32 v70,2013-11-04 21:50:00,
2013-11-04 15:55:00,56.0,34.9,30.09,NNE,22,6.0,19.0,45,0.00,,,0.00,Weather View 32 v70,2013-11-04 21:55:00,
2013-11-04 16:00:00,56.0,34.3,30.09,NNW,337,8.0,19.0,44,0.00,,,0.00,Weather View 32 v70,2013-11-04 22:00:00,
2013-11-04 16:05:00,56.0,34.3,30.10,NNE,22,8.0,19.0,44,0.00,,,0.00,Weather View 32 v70,2013-11-04 22:05:00,
2013-11-04 16:10:00,55.0,34.6,30.10,NNE,22,8.0,19.0,46,0.00,,,0.00,Weather View 32 v70,2013-11-04 22:10:00,
2013-11-04 16:15:00,55.0,34.6,30.10,NNW,337,7.0,15.0,46,0.00,,,0.00,Weather View 32 v70,2013-11-04 22:15:00,
2013-11-04 16:20:00,55.0,34.6,30.10,North,360,4.0,15.0,46,0.00,,,0.00,Weather View 32 v70,2013-11-04 22:20:00,
2013-11-04 16:25:00,55.0,35.1,30.11,NE,45,7.0,15.0,47,0.00,,,0.00,Weather View 32 v70,2013-11-04 22:25:00,
2013-11-04 16:30:00,54.0,34.7,30.11,NE,45,8.0,15.0,48,0.00,,,0.00,Weather View 32 v70,2013-11-04 22:30:00,
2013-11-04 16:35:00,53.0,34.3,30.11,NNE,22,6.0,15.0,49,0.00,,,0.00,Weather View 32 v70,2013-11-04 22:35:00,
2013-11-04 16:40:00,53.0,35.3,30.11,NNE,22,5.0,14.0,51,0.00,,,0.00,Weather View 32 v70,2013-11-04 22:40:00,
2013-11-04 16:45:00,53.0,35.8,30.12,NNE,22,3.0,14.0,52,0.00,,,0.00,Weather View 32 v70,2013-11-04 22:45:00,
2013-11-04 16:50:00,53.0,36.3,30.12,NNE,22,4.0,14.0,53,0.00,,,0.00,Weather View 32 v70,2013-11-04 22:50:00,
2013-11-04 16:55:00,52.0,34.9,30.13,NNE,22,9.0,14.0,52,0.00,,,0.00,Weather View 32 v70,2013-11-04 22:55:00,
2013-11-04 17:00:00,51.0,34.0,30.13,NNE,22,3.0,14.0,52,0.00,,,0.00,Weather View 32 v70,2013-11-04 23:00:00,
2013-11-04 17:05:00,51.0,34.0,30.14,NNE,22,3.0,14.0,52,0.00,,,0.00,Weather View 32 v70,2013-11-04 23:05:00,
2013-11-04 17:10:00,50.0,33.5,30.14,NNE,22,0.0,14.0,53,0.00,,,0.00,Weather View 32 v70,2013-11-04 23:10:00,
2013-11-04 17:15:00,49.0,33.5,30.16,NNE,22,0.0,14.0,55,0.00,,,0.00,Weather View 32 v70,2013-11-04 23:15:00,
2013-11-04 17:20:00,48.0,33.5,30.16,NNE,22,0.0,14.0,57,0.00,,,0.00,Weather View 32 v70,2013-11-04 23:20:00,
2013-11-04 17:25:00,47.0,33.4,30.17,NNE,22,0.0,14.0,59,0.00,,,0.00,Weather View 32 v70,2013-11-04 23:25:00,
2013-11-04 17:30:00,46.0,32.9,30.17,NNE,22,0.0,9.0,60,0.00,,,0.00,Weather View 32 v70,2013-11-04 23:30:00,
2013-11-04 17:35:00,45.0,32.7,30.18,NNE,22,0.0,9.0,62,0.00,,,0.00,Weather View 32 v70,2013-11-04 23:35:00,
2013-11-04 17:40:00,44.0,32.2,30.18,NNE,22,0.0,9.0,63,0.00,,,0.00,Weather View 32 v70,2013-11-04 23:40:00,
2013-11-04 17:45:00,43.0,31.6,30.20,NNE,22,0.0,9.0,64,0.00,,,0.00,Weather View 32 v70,2013-11-04 23:45:00,
2013-11-04 17:50:00,42.0,30.7,30.20,NNE,22,0.0,9.0,64,0.00,,,0.00,Weather View 32 v70,2013-11-04 23:50:00,
2013-11-04 17:55:00,41.0,30.1,30.21,NNE,22,0.0,9.0,65,0.00,,,0.00,Weather View 32 v70,2013-11-04 23:55:00,
2013-11-04 18:00:00,40.0,30.3,30.21,NNE,22,0.0,5.0,68,0.00,,,0.00,Weather View 32 v70,2013-11-05 00:00:00,
2013-11-04 18:05:00,39.0,30.0,30.23,NNE,22,0.0,4.0,70,0.00,,,0.00,Weather View 32 v70,2013-11-05 00:05:00,
2013-11-04 18:10:00,39.0,30.4,30.23,NNE,22,0.0,0.0,71,0.00,,,0.00,Weather View 32 v70,2013-11-05 00:10:00,
2013-11-04 18:15:00,39.0,31.1,30.24,NNE,22,0.0,0.0,73,0.00,,,0.00,Weather View 32 v70,2013-11-05 00:15:00,
2013-11-04 18:20:00,39.0,31.4,30.24,NNE,22,0.0,0.0,74,0.00,,,0.00,Weather View 32 v70,2013-11-05 00:20:00,
2013-11-04 18:25:00,39.0,31.1,30.25,NNE,22,0.0,0.0,73,0.00,,,0.00,Weather View 32 v70,2013-11-05 00:25:00,
2013-11-04 18:30:00,38.0,31.4,30.25,NNE,22,0.0,0.0,77,0.00,,,0.00,Weather View 32 v70,2013-11-05 00:30:00,
2013-11-04 18:35:00,37.0,31.7,30.26,NNE,22,0.0,0.0,81,0.00,,,0.00,Weather View 32 v70,2013-11-05 00:35:00,
2013-11-04 18:40:00,37.0,32.0,30.26,NNE,22,0.0,0.0,82,0.00,,,0.00,Weather View 32 v70,2013-11-05 00:40:00,
2013-11-04 18:45:00,36.0,30.7,30.27,NNE,22,0.0,0.0,81,0.00,,,0.00,Weather View 32 v70,2013-11-05 00:45:00,
2013-11-04 18:50:00,36.0,31.0,30.27,NNE,22,0.0,0.0,82,0.00,,,0.00,Weather View 32 v70,2013-11-05 00:50:00,
2013-11-04 18:55:00,37.0,32.3,30.28,NNE,22,0.0,0.0,83,0.00,,,0.00,Weather View 32 v70,2013-11-05 00:55:00,
2013-11-04 19:00:00,37.0,32.6,30.28,NNE,22,0.0,0.0,84,0.00,,,0.00,Weather View 32 v70,2013-11-05 01:00:00,
2013-11-04 19:05:00,36.0,32.2,30.28,NNE,22,0.0,0.0,86,0.00,,,0.00,Weather View 32 v70,2013-11-05 01:05:00,
2013-11-04 19:10:00,36.0,32.2,30.28,NNE,22,0.0,0.0,86,0.00,,,0.00,Weather View 32 v70,2013-11-05 01:10:00,
2013-11-04 19:15:00,35.0,31.5,30.28,NNE,22,0.0,0.0,87,0.00,,,0.00,Weather View 32 v70,2013-11-05 01:15:00,
2013-11-04 19:20:00,35.0,31.5,30.28,NNE,22,0.0,0.0,87,0.00,,,0.00,Weather View 32 v70,2013-11-05 01:20:00,
2013-11-04 19:25:00,35.0,31.2,30.28,NNE,22,0.0,0.0,86,0.00,,,0.00,Weather View 32 v70,2013-11-05 01:25:00,
2013-11-04 19:30:00,34.0,30.5,30.28,NNE,22,0.0,0.0,87,0.00,,,0.00,Weather View 32 v70,2013-11-05 01:30:00,
2013-11-04 19:35:00,34.0,30.5,30.29,NNE,22,0.0,0.0,87,0.00,,,0.00,Weather View 32 v70,2013-11-05 01:35:00,
2013-11-04 19:40:00,33.0,30.1,30.29,NNE,22,0.0,0.0,89,0.00,,,0.00,Weather View 32 v70,2013-11-05 01:40:00,
2013-11-04 19:45:00,33.0,30.1,30.30,NNE,22,0.0,0.0,89,0.00,,,0.00,Weather View 32 v70,2013-11-05 01:45:00,
2013-11-04 19:50:00,33.0,30.1,30.30,NNE,22,0.0,0.0,89,0.00,,,0.00,Weather View 32 v70,2013-11-05 01:50:00,
2013-11-04 19:55:00,34.0,31.4,30.30,NNE,22,0.0,0.0,90,0.00,,,0.00,Weather View 32 v70,2013-11-05 01:55:00,
2013-11-04 20:00:00,34.0,31.4,30.30,NNE,22,0.0,0.0,90,0.00,,,0.00,Weather View 32 v70,2013-11-05 02:00:00,
2013-11-04 20:05:00,34.0,31.1,30.30,NNE,22,0.0,0.0,89,0.00,,,0.00,Weather View 32 v70,2013-11-05 02:05:00,
2013-11-04 20:10:00,33.0,30.7,30.30,NNE,22,0.0,0.0,91,0.00,,,0.00,Weather View 32 v70,2013-11-05 02:10:00,
2013-11-04 20:15:00,33.0,30.9,30.31,NNE,22,0.0,0.0,92,0.00,,,0.00,Weather View 32 v70,2013-11-05 02:15:00,
2013-11-04 20:20:00,33.0,31.5,30.31,NNE,22,0.0,0.0,94,0.00,,,0.00,Weather View 32 v70,2013-11-05 02:20:00,
2013-11-04 20:25:00,33.0,31.2,30.31,NNE,22,0.0,0.0,93,0.00,,,0.00,Weather View 32 v70,2013-11-05 02:25:00,
2013-11-04 20:30:00,33.0,31.2,30.31,NNE,22,0.0,0.0,93,0.00,,,0.00,Weather View 32 v70,2013-11-05 02:30:00,
2013-11-04 20:36:00,32.0,30.5,30.32,NNE,22,0.0,0.0,94,0.00,,,0.00,Weather View 32 v70,2013-11-05 02:36:00,
2013-11-04 20:41:00,32.0,30.5,30.32,NNE,22,0.0,0.0,94,0.00,,,0.00,Weather View 32 v70,2013-11-05 02:41:00,
2013-11-04 20:46:00,31.0,29.7,30.31,NNE,22,0.0,0.0,95,0.00,,,0.00,Weather View 32 v70,2013-11-05 02:46:00,
2013-11-04 20:51:00,31.0,29.7,30.31,NNE,22,0.0,0.0,95,0.00,,,0.00,Weather View 32 v70,2013-11-05 02:51:00,
2013-11-04 20:56:00,31.0,29.7,30.32,NNE,22,0.0,0.0,95,0.00,,,0.00,Weather View 32 v70,2013-11-05 02:56:00,
2013-11-04 21:01:00,31.0,29.7,30.32,NNE,22,0.0,0.0,95,0.00,,,0.00,Weather View 32 v70,2013-11-05 03:01:00,
2013-11-04 21:06:00,32.0,30.7,30.32,NNE,22,0.0,0.0,95,0.00,,,0.00,Weather View 32 v70,2013-11-05 03:06:00,
2013-11-04 21:11:00,31.0,29.7,30.32,NNE,22,0.0,0.0,95,0.00,,,0.00,Weather View 32 v70,2013-11-05 03:11:00,
2013-11-04 21:16:00,31.0,30.2,30.33,NNE,22,0.0,0.0,97,0.00,,,0.00,Weather View 32 v70,2013-11-05 03:16:00,
2013-11-04 21:21:00,31.0,30.0,30.33,NNE,22,0.0,0.0,96,0.00,,,0.00,Weather View 32 v70,2013-11-05 03:21:00,
2013-11-04 21:26:00,31.0,30.2,30.33,NNE,22,0.0,0.0,97,0.00,,,0.00,Weather View 32 v70,2013-11-05 03:26:00,
2013-11-04 21:31:00,31.0,30.5,30.33,NNE,22,0.0,0.0,98,0.00,,,0.00,Weather View 32 v70,2013-11-05 03:31:00,
2013-11-04 21:36:00,31.0,30.8,30.33,NNE,22,0.0,0.0,99,0.00,,,0.00,Weather View 32 v70,2013-11-05 03:36:00,
2013-11-04 21:41:00,31.0,30.5,30.33,NNE,22,0.0,0.0,98,0.00,,,0.00,Weather View 32 v70,2013-11-05 03:41:00,
2013-11-04 21:46:00,31.0,30.5,30.34,NNE,22,0.0,0.0,98,0.00,,,0.00,Weather View 32 v70,2013-11-05 03:46:00,
2013-11-04 21:51:00,31.0,30.5,30.34,NE,45,0.0,0.0,98,0.00,,,0.00,Weather View 32 v70,2013-11-05 03:51:00,
2013-11-04 21:56:00,31.0,30.5,30.34,NNE,22,0.0,0.0,98,0.00,,,0.00,Weather View 32 v70,2013-11-05 03:56:00,
2013-11-04 22:01:00,31.0,30.2,30.34,NNE,22,0.0,0.0,97,0.00,,,0.00,Weather View 32 v70,2013-11-05 04:01:00,
2013-11-04 22:06:00,31.0,30.2,30.34,NNE,22,0.0,0.0,97,0.00,,,0.00,Weather View 32 v70,2013-11-05 04:06:00,
2013-11-04 22:11:00,30.0,29.8,30.34,NNE,22,0.0,0.0,99,0.00,,,0.00,Weather View 32 v70,2013-11-05 04:11:00,
2013-11-04 22:16:00,29.0,28.8,30.34,NNE,22,0.0,0.0,99,0.00,,,0.00,Weather View 32 v70,2013-11-05 04:16:00,
2013-11-04 22:21:00,30.0,29.8,30.34,NNE,22,0.0,0.0,99,0.00,,,0.00,Weather View 32 v70,2013-11-05 04:21:00,
2013-11-04 22:26:00,29.0,28.8,30.34,NNE,22,0.0,0.0,99,0.00,,,0.00,Weather View 32 v70,2013-11-05 04:26:00,
2013-11-04 22:31:00,29.0,29.0,30.34,NNE,22,0.0,0.0,100,0.00,,,0.00,Weather View 32 v70,2013-11-05 04:31:00,
2013-11-04 22:36:00,28.0,28.0,30.35,NNE,22,0.0,0.0,100,0.00,,,0.00,Weather View 32 v70,2013-11-05 04:36:00,
2013-11-04 22:41:00,28.0,28.0,30.35,NNE,22,0.0,0.0,100,0.00,,,0.00,Weather View 32 v70,2013-11-05 04:41:00,
2013-11-04 22:46:00,28.0,28.0,30.35,NNE,22,0.0,0.0,100,0.00,,,0.00,Weather View 32 v70,2013-11-05 04:46:00,
2013-11-04 22:51:00,29.0,29.0,30.35,NNE,22,0.0,0.0,100,0.00,,,0.00,Weather View 32 v70,2013-11-05 04:51:00,
2013-11-04 22:56:00,29.0,29.0,30.35,NNE,22,0.0,0.0,100,0.00,,,0.00,Weather View 32 v70,2013-11-05 04:56:00,
2013-11-04 23:01:00,29.0,29.0,30.35,NNE,22,0.0,0.0,100,0.00,,,0.00,Weather View 32 v70,2013-11-05 05:01:00,
2013-11-04 23:02:00,28.0,28.0,30.35,NNE,22,0.0,0.0,100,0.00,,,0.00,Weather View 32 v70,2013-11-05 05:02:00,
2013-11-04 23:07:00,28.0,28.0,30.36,NNE,22,0.0,0.0,100,0.00,,,0.00,Weather View 32 v70,2013-11-05 05:07:00,
2013-11-04 23:12:00,28.0,28.0,30.36,NNE,22,0.0,0.0,100,0.00,,,0.00,Weather View 32 v70,2013-11-05 05:12:00,
2013-11-04 23:17:00,29.0,29.0,30.35,NNE,22,0.0,0.0,100,0.00,,,0.00,Weather View 32 v70,2013-11-05 05:17:00,
2013-11-04 23:22:00,28.0,28.0,30.35,NNE,22,0.0,0.0,100,0.00,,,0.00,Weather View 32 v70,2013-11-05 05:22:00,
2013-11-04 23:27:00,29.0,29.0,30.35,NNE,22,0.0,0.0,100,0.00,,,0.00,Weather View 32 v70,2013-11-05 05:27:00,
2013-11-04 23:32:00,28.0,28.0,30.35,NNE,22,0.0,0.0,100,0.00,,,0.00,Weather View 32 v70,2013-11-05 05:32:00,
2013-11-04 23:37:00,29.0,29.0,30.36,NNE,22,0.0,0.0,100,0.00,,,0.00,Weather View 32 v70,2013-11-05 05:37:00,
2013-11-04 23:42:00,29.0,29.0,30.36,NNE,22,0.0,0.0,100,0.00,,,0.00,Weather View 32 v70,2013-11-05 05:42:00,
2013-11-04 23:47:00,29.0,29.0,30.36,NNE,22,0.0,0.0,100,0.00,,,0.00,Weather View 32 v70,2013-11-05 05:47:00,
2013-11-04 23:52:00,28.0,28.0,30.36,NNE,22,0.0,0.0,100,0.00,,,0.00,Weather View 32 v70,2013-11-05 05:52:00,
2013-11-04 23:57:00,28.0,28.0,30.36,NNE,22,0.0,0.0,100,0.00,,,0.00,Weather View 32 v70,2013-11-05 05:57:00,